THOR ABLESTAR DEB, 141

Orbit data source: Space-Track

THOR ABLESTAR DEB, 141 is space debris in LEO originally from a launch on Thu, 29 Jun 1961 UTC launched from the Air Force Eastern Test Range (AFETR). Debris objects in space refer to the collection of defunct objects orbiting the Earth. Examples of debris include non-operational satellites, rocket bodies, and fragments generated from explosions, collisions, or faulty payload assembly.

Loading next visibility...
Identifier
141, 1961-015AB
Orbit
LEO
Country
Flag of USUS
Related business
Manufacturer
Unknown
Mission
Spacecraft
Bus & Motor
Unknown
Mass
Unknown
Launch date (UTC)
1961-06-29 (64 years ago)
Launch vehicle
Unknown
Launch site
Air Force Eastern Test Range (AFETR)
Object type
Payload
Rocket body
Debris
Shape & HBR
Unknown
Radar Cross Section
Medium (>0.1 m² and <1 m²)

Expand to show TLE details & history
Last TLE update: 21 hours ago

TLE from 21 hours ago
0 THOR ABLESTAR DEB
1 00141U 61015AB  25261.22187382  .00000256  00000-0  27247-3 0  9996
2 00141  66.5913 351.6857 0061050 229.1655 130.4120 13.88735376234051
Epoch: 2025-09-18T05:19Z
TLE epoch observation values (Epoch: 2025-09-18T05:19:29.898Z)
Latitude
0.00008°
Longitude
-85.57541°
Altitude
964.22 km
Speed
7.355 km/s
True Right ascension
23h 26m 44s
True Declination
0° 00' 00"
Sunlit
Object was in full shadow at epoch
Visualization orbit readout
Latitude
Unknown
Longitude
Unknown
Altitude
Unknown
Speed
Unknown
Apparent Right ascension
Unknown
Apparent Declination
Unknown
Sunlit
N/A
Visualization observer readout
Local Sidereal Time
19:17:49
Azimuth
Unknown
Elevation
Unknown
Doppler factor
Unknown
Orbital elements
Apogee altitude
976.11 km
Perigee altitude
886.86 km
Semi-major axis
7,309.622 km
Eccentricity
0.00611
Inclination
66.5913°
RAAN
351.6857°
Arg. of periapsis
229.1655°
True anomaly
130.94203°
Mean anomaly
130.412°
Eccentric anomaly
130.67728°
Mean motion
3.47297 °/min
Orbital period
103.66 mins
BSTAR
0.00027247
Loading maneuver chart data...
Computing Atmospheric mass density...

Documentation

Showing up to 5 results
|